Hourly Weather Novokorotkino

Today, 2 July, Thursday

Time Temperature Precipitation Wind Pressure Humidity
00:00 +20°C° 0 mm 3 mps 751 mmHg 74%
01:00 +19°C° 0 mm 3 mps 751 mmHg 75%
02:00 +19°C° 0 mm 3 mps 750 mmHg 76%
03:00 +18°C° 0 mm 3 mps 750 mmHg 76%
04:00 +18°C° 0.6 mm 3 mps 749 mmHg 81%
05:00 +17°C° 0.6 mm 3 mps 749 mmHg 86%
06:00 +17°C° 0 mm 2 mps 749 mmHg 95%
07:00 +18°C° 1.3 mm 3 mps 749 mmHg 93%
08:00 +19°C° 1.3 mm 3 mps 748 mmHg 90%
09:00 +20°C° 1.3 mm 4 mps 748 mmHg 88%
10:00 +22°C° 0.8 mm 3 mps 747 mmHg 82%
11:00 +25°C° 0.8 mm 3 mps 747 mmHg 76%
12:00 +27°C° 0 mm 3 mps 747 mmHg 66%
13:00 +29°C° 0 mm 3 mps 746 mmHg 58%
14:00 +31°C° 0 mm 3 mps 746 mmHg 50%
15:00 +35°C° 0 mm 3 mps 746 mmHg 41%
16:00 +35°C° 0 mm 2 mps 746 mmHg 45%
17:00 +34°C° 0 mm 2 mps 745 mmHg 49%
18:00 +34°C° 0 mm 2 mps 745 mmHg 53%
19:00 +30°C° 0 mm 1 mps 745 mmHg 62%
20:00 +28°C° 0 mm 1 mps 745 mmHg 71%
21:00 +25°C° 0 mm 1 mps 745 mmHg 80%
22:00 +24°C° 0.6 mm 1 mps 745 mmHg 85%
23:00 +23°C° 0.6 mm 1 mps 745 mmHg 89%

Tomorrow, 3 July, Friday

Time Temperature Precipitation Wind Pressure Humidity
00:00 +22°C° 0.6 mm 1 mps 745 mmHg 94%
01:00 +21°C° 0.1 mm 1 mps 745 mmHg 95%
02:00 +21°C° 0.1 mm 1 mps 745 mmHg 96%
03:00 +21°C° 0.1 mm 1 mps 745 mmHg 97%
04:00 +21°C° 0 mm 1 mps 745 mmHg 97%
05:00 +20°C° 0 mm 2 mps 745 mmHg 96%
06:00 +21°C° 0 mm 2 mps 745 mmHg 96%
07:00 +21°C° 0 mm 2 mps 745 mmHg 94%
08:00 +21°C° 0 mm 2 mps 745 mmHg 91%
09:00 +23°C° 0 mm 2 mps 745 mmHg 89%
10:00 +24°C° 0 mm 2 mps 745 mmHg 83%
11:00 +25°C° 0 mm 2 mps 746 mmHg 77%
12:00 +26°C° 0 mm 1 mps 746 mmHg 72%
13:00 +27°C° 0.2 mm 1 mps 746 mmHg 69%
14:00 +28°C° 0.2 mm 1 mps 746 mmHg 65%
15:00 +29°C° 0.2 mm 1 mps 746 mmHg 62%
16:00 +28°C° 0.8 mm 1 mps 746 mmHg 70%
17:00 +27°C° 0.8 mm 1 mps 746 mmHg 77%
18:00 +26°C° 0.8 mm 2 mps 746 mmHg 84%
19:00 +24°C° 0.2 mm 1 mps 746 mmHg 87%
20:00 +23°C° 0.2 mm 1 mps 746 mmHg 90%
21:00 +22°C° 0.2 mm 1 mps 746 mmHg 93%
22:00 +21°C° 0 mm 1 mps 746 mmHg 95%
23:00 +20°C° 0 mm 1 mps 746 mmHg 96%

Day after tomorrow, 4 July, Saturday

Time Temperature Precipitation Wind Pressure Humidity
00:00 +19°C° 0 mm 2 mps 746 mmHg 97%
01:00 +20°C° 0 mm 1 mps 746 mmHg 97%
02:00 +19°C° 0 mm 1 mps 746 mmHg 97%
03:00 +19°C° 0 mm 1 mps 746 mmHg 98%
04:00 +19°C° 0 mm 1 mps 746 mmHg 97%
05:00 +19°C° 0 mm 2 mps 746 mmHg 97%
06:00 +19°C° 0 mm 2 mps 746 mmHg 97%
07:00 +21°C° 0 mm 2 mps 746 mmHg 91%
08:00 +23°C° 0 mm 2 mps 745 mmHg 85%
09:00 +24°C° 0 mm 2 mps 745 mmHg 79%
10:00 +25°C° 0 mm 2 mps 745 mmHg 74%
11:00 +26°C° 0 mm 2 mps 745 mmHg 69%
12:00 +27°C° 0 mm 2 mps 745 mmHg 64%
13:00 +28°C° 0 mm 2 mps 745 mmHg 59%
14:00 +29°C° 0 mm 2 mps 745 mmHg 55%
15:00 +29°C° 0 mm 2 mps 745 mmHg 51%
16:00 +29°C° 0.1 mm 3 mps 745 mmHg 56%
17:00 +28°C° 0.1 mm 3 mps 745 mmHg 62%
18:00 +27°C° 0.1 mm 3 mps 745 mmHg 68%
19:00 +25°C° 0.1 mm 2 mps 745 mmHg 76%
20:00 +24°C° 0.1 mm 2 mps 745 mmHg 84%
21:00 +22°C° 0.1 mm 1 mps 745 mmHg 92%
22:00 +21°C° 0 mm 1 mps 746 mmHg 94%
23:00 +20°C° 0 mm 1 mps 746 mmHg 95%

5 July, Sunday

Time Temperature Precipitation Wind Pressure Humidity
00:00 +20°C° 0 mm 1 mps 746 mmHg 96%
01:00 +19°C° 0 mm 1 mps 746 mmHg 97%
02:00 +19°C° 0 mm 1 mps 746 mmHg 97%
03:00 +19°C° 0 mm 1 mps 746 mmHg 97%
04:00 +19°C° 0 mm 1 mps 746 mmHg 97%
05:00 +20°C° 0 mm 1 mps 746 mmHg 96%
06:00 +20°C° 0 mm 1 mps 746 mmHg 96%
07:00 +21°C° 0 mm 1 mps 746 mmHg 93%
08:00 +22°C° 0 mm 1 mps 747 mmHg 91%
09:00 +22°C° 0 mm 1 mps 747 mmHg 89%
10:00 +23°C° 0 mm 1 mps 747 mmHg 84%
11:00 +24°C° 0 mm 1 mps 746 mmHg 80%
12:00 +25°C° 0 mm 2 mps 746 mmHg 75%
13:00 +25°C° 0.2 mm 1 mps 746 mmHg 74%
14:00 +26°C° 0.2 mm 1 mps 746 mmHg 72%
15:00 +26°C° 0.2 mm 1 mps 746 mmHg 71%
16:00 +26°C° 0.3 mm 1 mps 746 mmHg 73%
17:00 +26°C° 0.3 mm 2 mps 746 mmHg 76%
18:00 +25°C° 0.3 mm 2 mps 746 mmHg 78%
19:00 +24°C° 0.8 mm 2 mps 746 mmHg 83%
20:00 +23°C° 0.8 mm 2 mps 745 mmHg 88%
21:00 +21°C° 0.8 mm 2 mps 745 mmHg 94%
22:00 +20°C° 0.5 mm 2 mps 745 mmHg 94%
23:00 +20°C° 0.5 mm 2 mps 745 mmHg 95%

6 July, Monday

Time Temperature Precipitation Wind Pressure Humidity
00:00 +20°C° 0.5 mm 1 mps 745 mmHg 96%
01:00 +20°C° 0.5 mm 1 mps 745 mmHg 97%
02:00 +20°C° 0.5 mm 1 mps 745 mmHg 97%
03:00 +19°C° 0.5 mm 1 mps 745 mmHg 97%
04:00 +20°C° 0.5 mm 1 mps 745 mmHg 97%
05:00 +18°C° 0.5 mm 0 mps 745 mmHg 96%
06:00 +18°C° 0.5 mm 0 mps 745 mmHg 96%
07:00 +21°C° 0.4 mm 1 mps 745 mmHg 94%
08:00 +21°C° 0.4 mm 1 mps 745 mmHg 92%
09:00 +22°C° 0.4 mm 1 mps 745 mmHg 90%
10:00 +23°C° 0.9 mm 1 mps 745 mmHg 86%
11:00 +24°C° 0.9 mm 2 mps 745 mmHg 81%
12:00 +25°C° 0.9 mm 2 mps 745 mmHg 77%
13:00 +25°C° 1 mm 2 mps 745 mmHg 78%
14:00 +25°C° 1 mm 2 mps 745 mmHg 78%
15:00 +25°C° 1 mm 3 mps 744 mmHg 79%
16:00 +25°C° 0.6 mm 3 mps 744 mmHg 80%
17:00 +25°C° 0.6 mm 3 mps 744 mmHg 80%
18:00 +24°C° 0.6 mm 3 mps 744 mmHg 80%
19:00 +22°C° 0.2 mm 3 mps 745 mmHg 84%
20:00 +21°C° 0.2 mm 3 mps 745 mmHg 87%
21:00 +19°C° 0.2 mm 3 mps 745 mmHg 90%
22:00 +18°C° 0 mm 2 mps 745 mmHg 92%
23:00 +17°C° 0 mm 2 mps 745 mmHg 94%

7 July, Tuesday

Time Temperature Precipitation Wind Pressure Humidity
00:00 +16°C° 0 mm 2 mps 744 mmHg 96%
01:00 +16°C° 0 mm 2 mps 745 mmHg 97%
02:00 +15°C° 0 mm 2 mps 745 mmHg 97%
03:00 +15°C° 0 mm 2 mps 745 mmHg 98%
04:00 +15°C° 0 mm 2 mps 745 mmHg 97%
05:00 +16°C° 0 mm 2 mps 745 mmHg 96%
06:00 +16°C° 0 mm 2 mps 745 mmHg 95%
07:00 +17°C° 0 mm 2 mps 745 mmHg 91%
08:00 +18°C° 0 mm 2 mps 745 mmHg 88%
09:00 +19°C° 0 mm 2 mps 745 mmHg 84%
10:00 +20°C° 0 mm 2 mps 745 mmHg 78%
11:00 +23°C° 0 mm 2 mps 745 mmHg 73%
12:00 +24°C° 0 mm 2 mps 745 mmHg 67%
13:00 +24°C° 0 mm 3 mps 745 mmHg 66%
14:00 +25°C° 0 mm 3 mps 745 mmHg 65%
15:00 +25°C° 0 mm 3 mps 746 mmHg 65%
16:00 +25°C° 0.1 mm 3 mps 746 mmHg 68%
17:00 +25°C° 0.1 mm 3 mps 746 mmHg 71%
18:00 +23°C° 0.1 mm 4 mps 746 mmHg 74%
19:00 +22°C° 0 mm 3 mps 746 mmHg 78%
20:00 +20°C° 0 mm 3 mps 746 mmHg 83%
21:00 +19°C° 0 mm 3 mps 747 mmHg 88%
22:00 +18°C° 0 mm 3 mps 747 mmHg 89%
23:00 +17°C° 0 mm 3 mps 747 mmHg 89%
Show more